Regional Weather Roundup
Issued by NWS

Home | Current Version | Previous Version | Text Only | Print | Product List | Glossary Off
Versions: 1 2 3 4 5 6 7 8 9 10 11 12 13 14 15 16 17 18 19 20 21 22 23 24 25 26 27 28 29 30 31 32 33 34 35 36 37 38 39 40 41 42 43 44 45 46 47 48 49 50

000
ASUS45 KSLC 230110
RWRUT

UTAH REGIONAL WEATHER ROUNDUP
NATIONAL WEATHER SERVICE SALT LAKE CITY UT
700 PM MDT MON SEP 22 2014

UTZ001>011-023>025-230200-

NORTHERN UTAH

CITY           SKY/WX    TMP DP  RH WIND       PRES   REMARKS
HILL AFB       CLOUDY    71  49  44 NW5       30.14R
LOGAN          CLOUDY    71  51  49 W3        30.10S
OGDEN          CLOUDY    71  50  47 CALM      30.11S
PROVO AIRPORT  PTCLDY    73  52  46 CALM      30.12S
SALT LAKE CITY MOCLDY    73  51  46 CALM      30.09S
VERNAL         CLOUDY    68  54  60 CALM      30.14F
WENDOVER       CLOUDY    72  52  49 CALM      30.09S
HEBER CITY     MOCLDY    66  50  55 CALM      30.17S
WEST JORDAN    CLOUDY    72  52  49 CALM      30.13S

$$

UTZ012>022-026-027-230200-

SOUTHERN UTAH

CITY           SKY/WX    TMP DP  RH WIND       PRES   REMARKS
BRYCE CANYON   PTCLDY    62  38  40 W9        30.31S
CEDAR CITY     CLEAR     72  37  28 SW8       30.17S
MILFORD        PTCLDY    75  47  36 S12       30.11F
MOAB/CYNLANDS  CLEAR     76  52  43 N7        30.08S
PRICE          MOCLDY    69  52  54 CALM      30.20R
ST GEORGE      MOCLDY    88  39  18 NW5       30.01S
KANAB            N/A     75  43  31 W5        30.16S

$$

REGIONAL REPORTS     COLORADO/ARIZONA

CITY           SKY/WX    TMP DP  RH WIND       PRES   REMARKS
CRAIG, CO      MOCLDY    65  45  48 W9        30.20S
GRAND JUNCTION PTCLDY    70  53  54 CALM      30.12S
RIFLE          MOCLDY    68  49  50 CALM      30.17S
MONTROSE       PTCLDY    70  53  54 S3        30.20S
CORTEZ         CLEAR     73  44  35 W7        30.20S
PAGE, AZ         N/A     84  39  20 CALM      30.08S
GRAND CANYON   MOCLDY    72  42  34 SW8       30.26R
KINGMAN        CLEAR     85  34  16 SW10      30.04S
FLAGSTAFF      PTCLDY    70  45  40 SW6       30.30S

$$

REGIONAL REPORTS    NEVADA/IDAHO/WYOMING

CITY           SKY/WX    TMP DP  RH WIND       PRES   REMARKS
LAS VEGAS, NV  CLEAR     93  40  15 SE8       29.88F
ELY            PTCLDY    70  42  36 SW8       30.21R
ELKO           PTCLDY    76  41  28 W6        30.10S
POCATELLO, ID  MOCLDY    71  50  47 W9        30.10S
BURLEY         CLEAR     70  50  49 S3        30.07S
EVANSTON, WY   PTCLDY    60  43  53 W8        30.25S
ROCK SPRINGS   CLOUDY    61  43  51 NW10      30.21R

$$


USA.gov is the U.S. government's official web portal to all federal, state and local government web resources and services.